Location: Bremen
(53.0793°N, 8.8017°E)
Time: 17:42:59
(UTC+01:00)

Vanguard 1 Rocket - Pass Details

Date: 10 December 2021
Orbit: 651 x 4224 km, 34.3° (Epoch: 24 January)

Event Time Altitude Azimuth Distance (km) Brightness Sun altitude
Rises 04:50:50 0° 254° (WSW) 4,860 - -31.0°
Reaches altitude 10° 04:53:54 10° 245° (WSW) 4,267 - -30.6°
Exits shadow 04:59:04 26° 221° (SW) 3,731 10.1 -29.8°
Maximum altitude 05:04:30 33° 187° (S) 3,910 10.4 -29.0°
Drops below altitude 10° 05:21:49 10° 133° (SE) 6,940 12.5 -26.4°
Sets 05:28:48 0° 127° (SE) 8,289 13.2 -25.4°
